sat.trackr.live / text

‹ back to catalog

STARLINK-3189

NORAD 51464 · 2022-010J

PAYLOAD ACTIVE UNKNOWN

§ Identity

Operator
Country
US
Launch date
2022-02-03
Launch site
AFETR
Launch vehicle
Mass (kg)
RCS (m²)

Purposes: comms

External: N2YO · Heavens-Above · Gunter

§ Orbital elements

Epoch: 2026-05-25T03:12:27.707328Z

Period
95.44 min
Inclination
53.2138°
Eccentricity
0.0001701
Mean motion
15.08822086 rev/d
Perigee alt
538.6 km
Apogee alt
541.0 km
Semi-major
6,917.9 km
B*
2.4432e-4
RAAN
295.9500°
Arg perigee
89.9336°
Mean anomaly
270.1851°
Rev number
23,886

§ Raw data

STARLINK-31891 51464U 22010J   26145.13365402  .00003601  00000+0  24432-3 0  99942 51464  53.2138 295.9500 0001701  89.9336 270.1851 15.08822086238862

JSON: /api/v1/satellites/51464 · /tle

For live sub-satellite position, see the globe view (requires WebGL).

§ Visibility from observer

Set your observer location to see the next 7 days of passes ≥ 10°. The values pass through the URL so the page stays shareable.

No JS? Fill the form by hand. The geolocation button needs JavaScript.